South Lake Tahoe, CA

10:06 PM PST on December 13, 2017 (GMT -0800)
Lake Tahoe

Weather History for KTVL - January, 2014

Change the Weather History Date:

Monday, January 27, 2014

  Actual Average Record
Temperature  
Mean Temperature 38 °F 30 °F  
Max Temperature 55 °F 43 °F 57 °F (1988)
Min Temperature 20 °F 16 °F -5 °F (1979)
Degree Days  
Heating Degree Days 27 35  
Month to date heating degree days 773 952  
Since 1 July heating degree days 3731 4135  
Cooling Degree Days 0 0  
Month to date cooling degree days 0 0  
Year to date cooling degree days 0 0  
Moisture  
Dew Point 21 °F    
Average Humidity 50    
Maximum Humidity 77    
Minimum Humidity 22    
Precipitation  
Precipitation 0.00 in - 2.04 in (1956)
Month to date precipitation 0.17  
Year to date precipitation 0.17  
Sea Level Pressure  
Sea Level Pressure 30.21 in    
Wind  
Wind Speed 2 mph (SSE)    
Max Wind Speed 9 mph    
Max Gust Speed 12 mph    
Visibility 10 miles    
Events      
T = Trace of Precipitation, MM = Missing Value Source: NWS Daily Summary

Daily Weather History Graph

Daily Weather History Graph

Search for Another Location

Airport or City:

Trip Planner

Search our weather history database for the weather conditions in past years. The results will help you decide how hot, cold, wet, or windy it might be!

Date:

Astronomy

Jan. 27, 2014 Rise Set
Actual Time 7:10 AM PST 5:15 PM PST
Civil Twilight 6:41 AM PST 5:44 PM PST
Nautical Twilight 6:09 AM PST 6:16 PM PST
Astronomical Twilight 5:38 AM PST 6:47 PM PST
Moon 3:56 AM PST (1/27) 2:07 PM PST (1/27)
Length of Visible Light 11h 02m
Length of Day
10h 05m
Waning Crescent, 14% of the Moon is Illuminated
Jan 27
Waning Crescent
Jan 30
New
Feb 6
First Quarter
Feb 14
Full
Feb 22
Last Quarter

Hourly Weather History & Observations

Time (PST) Temp. Windchill Dew Point Humidity Pressure Visibility Wind Dir Wind Speed Gust Speed Precip Events Conditions
12:53 AM 25.0 °F - 16.0 °F 69% 30.15 in 10.0 mi Calm Calm - N/A   Clear
1:53 AM 23.0 °F 18.4 °F 15.1 °F 72% 30.14 in 10.0 mi SSW 3.5 mph - N/A   Clear
2:53 AM 23.0 °F - 15.1 °F 72% 30.14 in 10.0 mi Calm Calm - N/A   Clear
3:53 AM 21.9 °F 17.2 °F 15.1 °F 75% 30.16 in 10.0 mi South 3.5 mph - N/A   Clear
4:53 AM 21.9 °F 17.2 °F 14.0 °F 72% 30.19 in 10.0 mi South 3.5 mph - N/A   Clear
5:53 AM 21.0 °F - 14.0 °F 74% 30.23 in 10.0 mi Calm Calm - N/A   Clear
6:53 AM 19.9 °F 14.9 °F 12.9 °F 74% 30.27 in 10.0 mi South 3.5 mph - N/A   Clear
7:53 AM 19.9 °F 14.9 °F 14.0 °F 78% 30.29 in 10.0 mi South 3.5 mph - N/A   Clear
8:53 AM 27.0 °F 21.6 °F 17.1 °F 66% 30.30 in 10.0 mi South 4.6 mph - N/A   Clear
9:53 AM 37.0 °F - 19.0 °F 48% 30.25 in 10.0 mi Calm Calm - N/A   Clear
10:53 AM 46.0 °F 43.9 °F 17.1 °F 31% 30.23 in 10.0 mi NNE 4.6 mph - N/A   Clear
11:53 AM 48.0 °F - 19.9 °F 33% 30.22 in 10.0 mi Calm Calm - N/A   Clear
12:53 PM 53.1 °F - 16.0 °F 23% 30.17 in 10.0 mi Calm Calm - N/A   Clear
1:53 PM 50.0 °F - 25.0 °F 38% 30.17 in 10.0 mi North 3.5 mph - N/A   Clear
2:53 PM 46.9 °F - 28.9 °F 50% 30.18 in 10.0 mi NNE 6.9 mph - N/A   Clear
3:53 PM 48.0 °F - 27.0 °F 44% 30.19 in 10.0 mi NE 3.5 mph - N/A   Mostly Cloudy
4:53 PM 44.1 °F - 26.1 °F 49% 30.20 in 10.0 mi Calm Calm - N/A   Mostly Cloudy
5:53 PM 41.0 °F 38.0 °F 27.0 °F 57% 30.23 in 10.0 mi NNE 4.6 mph - N/A   Overcast
6:53 PM 39.0 °F - 28.0 °F 65% 30.24 in 10.0 mi Calm Calm - N/A   Overcast
7:53 PM 37.0 °F - 26.1 °F 65% 30.27 in 10.0 mi Calm Calm - N/A   Mostly Cloudy
8:53 PM 34.0 °F 31.0 °F 25.0 °F 70% 30.25 in 10.0 mi South 3.5 mph - N/A   Mostly Cloudy
9:53 PM 35.1 °F - 25.0 °F 67% 30.22 in 10.0 mi Calm Calm - N/A   Overcast
10:53 PM 35.1 °F - 26.1 °F 70% 30.19 in 10.0 mi Calm Calm - N/A   Overcast
11:53 PM 36.0 °F - 26.1 °F 67% 30.19 in 10.0 mi Calm Calm - N/A   Overcast